星链-35531(STARLINK-35531)

导读

STARLINK-35531是美国SpaceX公司星链星座的一员,于2025年10月19日发射入轨。星链计划旨在通过近地轨道卫星星座为全球提供高速低延迟互联网接入,尤其服务网络覆盖薄弱的偏远地区。该卫星继承了星链卫星的技术设计,服役后进一步扩充星链星座规模,助力SpaceX实现全球卫星互联网覆盖的目标,目前星链全球活跃用户已超600万,覆盖多个国家和地区。

Basic Information
目录编号:
66112
目录名称:
STARLINK-35531
国际标识:
2025-236AC
轨道中心:
EARTH
卫星名称:
星链-35531
卫星全名:
星链-35531(STARLINK-35531)
卫星状态:
在轨 (已飞行320 天)
发射日期:
2025-10-19 UTC
国别 :
美国 (US)
星等 :
--
Orbit Information
数据来源 国际轨道数据
星历时间: 2026-09-04T14:50:31+0800
7小时前
查看轨道信息
半长轴: 6840.843km
偏心率: 0.0001379
轨道倾角: 53.160°
近地点辐角 80.943°
升交点赤经 353.231°
平近点角 279.173°
近地点: 461.762km
远地点: 463.65km
周期: 93.848分钟
每日圈数: 15.343991
Detailed Information
固有亮度:
5
最大亮度:
2.5
卫星平台:
Starlink V1.0
覆盖范围:
全球
运营商:
太空探索技术公司
运营商所在国:
美国
制造商(研发单位):
太空探索技术公司
制造商所在国:
美国
使用方式:
暂无
Satellite Introduction
Starlink 计划是 SpaceX 推出的全球卫星互联网项目,通过发射低轨道卫星,为全球尤其是偏远地区提供高速、低延迟的互联网服务。自 2019 年起,Starlink 已部署数千颗卫星,旨在缩小全球数字鸿沟,推动互联网普及。该项目还为军事、航空等行业提供通信支持,带来广泛经济效益。
2D Orbit Map
3D Orbit Map
Orbit Altitude Analysis Chart
Orbit Inclination Analysis Chart
Orbit Comprehensive Analysis Chart
View Comprehensive Chart
Conjunction Data List
Event ID Objects TCA Miss Dist (km) Collision Risk Probability Collision Risk Index (CRI) Action
CDM_260904-103206-321006-611221
2026-09-04T
10:32:26+0000
0.943 km
远距离
3.258139E-5 中风险 0.65
CDM_260905-101506-393206-611221
2026-09-05T
10:15:35+0000
1.401 km
极远距离
7.842595E-6 低风险 0.53
CDM_260906-194106-611206-916521
2026-09-06T
19:41:46+0000
1.384 km
极远距离
7.488945E-6 低风险 0.52
CDM_260905-114906-393206-611221
2026-09-05T
11:49:25+0000
1.499 km
极远距离
6.26539E-6 低风险 0.51
CDM_260906-180706-611206-916521
2026-09-06T
18:07:59+0000
2.833 km
极远距离
1.261759E-6 低风险 0.37